Location: Peebles
(55.6412°N, 3.1714°W)
Time: 17:59:02
(UTC+01:00)

Envisat - Pass Details

Date: 02 March 2024
Orbit: 762 x 764 km, 98.3° (Epoch: 20 April)

Event Time Altitude Azimuth Distance (km) Brightness Sun altitude
Rises 03:00:44 0° 20° (NNE) 3,246 7.1 -32.5°
Reaches altitude 10° 03:03:16 10° 30° (NNE) 2,314 6.3 -32.2°
Maximum altitude 03:07:54 34° 95° (E) 1,254 4.3 -31.7°
Enters shadow 03:08:20 33° 105° (ESE) 1,267 4.3 -31.7°
